WESTFORD NEEDLES, 5702

Orbit data source: Space-Track

WESTFORD NEEDLES, 5702 is space debris in LEO originally from a launch on Thu, 09 May 1963 UTC launched from the Air Force Western Test Range (AFWTR). Debris objects in space refer to the collection of defunct objects orbiting the Earth. Examples of debris include non-operational satellites, rocket bodies, and fragments generated from explosions, collisions, or faulty payload assembly.

Loading next visibility...
Identifier
5702, 1963-014CU
Orbit
LEO
Country
Flag of USUS
Related business
Manufacturer
Unknown
Mission
Spacecraft
Bus & Motor
Unknown
Mass
Unknown
Launch date (UTC)
1963-05-09 (63 years ago)
Launch vehicle
Unknown
Launch site
Air Force Western Test Range (AFWTR)
Object type
Payload
Rocket body
Debris
Shape & HBR
Unknown shape, 0.1 m
Radar Cross Section
Medium (>0.1 m² and <1 m²)

Expand to show TLE details & history
Last TLE update: 17 hours ago

TLE from 17 hours ago
0 WESTFORD NEEDLES
1 05702U 63014CU  25341.24405936  .00001957  00000-0  14525+0 0  9994
2 05702  86.1259  92.9861 1847399  12.6009 351.5223  8.75104570410138
Epoch: 2025-12-07T05:51Z
TLE epoch observation values (Epoch: 2025-12-07T05:51:26.728Z)
Latitude
-0.00006°
Longitude
-71.1355°
Altitude
1,763.439 km
Speed
7.607 km/s
True Right ascension
06h 11m 56s
True Declination
0° 00' 00"
Sunlit
Object was in full shadow at epoch
Visualization orbit readout
Latitude
Unknown
Longitude
Unknown
Altitude
Unknown
Speed
Unknown
Apparent Right ascension
Unknown
Apparent Declination
Unknown
Sunlit
N/A
Visualization observer readout
Local Sidereal Time
20:48:33
Azimuth
Unknown
Elevation
Unknown
Doppler factor
Unknown
Orbital elements
Apogee altitude
5,403.837 km
Perigee altitude
1,729.443 km
Semi-major axis
9,944.777 km
Eccentricity
0.18474
Inclination
86.1259°
RAAN
92.9861°
Arg. of periapsis
12.6009°
True anomaly
347.49538°
Mean anomaly
351.5223°
Eccentric anomaly
349.6141°
Mean motion
2.18852 °/min
Orbital period
164.49 mins
BSTAR
0.14525
Loading maneuver chart data...
Computing Atmospheric mass density...

Documentation

Showing up to 5 results
|